Wind_Speed
44 39 36 35 32 28 25 20 20 19 17 15 14 11 10 9 9 8 9 6 3 1 2 5 7 10 15 15 19 21 12 17 22 23 26 27 28 27 26 24 24 24 21 19 18
46 43 38 35 33 30 26 24 22 21 19 19 19 17 14 13 11 12 11 11 9 5 4 3 4 4 9 8 8 15 15 16 19 20 23 24 26 29 30 28 28 25 23 25 26
49 45 40 35 33 32 29 26 23 22 23 22 22 20 19 16 15 12 13 14 14 11 10 7 5 8 6 6 12 11 11 13 14 16 21 22 25 28 31 29 26 27 25 23 26
47 45 41 38 35 31 30 27 26 23 21 21 22 23 20 21 20 19 16 15 16 17 16 12 8 8 4 3 3 4 8 10 8 13 17 20 22 25 29 30 29 31 30 29 28
43 41 40 37 32 29 26 25 24 22 22 24 23 24 24 24 24 24 22 19 17 20 20 19 17 12 11 9 8 5 2 6 5 8 12 17 19 20 26 30 31 32 31 33 35
40 38 35 31 30 28 27 25 23 24 24 22 24 26 26 27 27 26 25 24 21 22 24 24 23 21 17 8 13 12 10 6 5 4 8 11 14 16 20 25 25 26 28 32 35
37 35 33 31 31 29 27 26 27 25 26 28 27 28 28 28 28 28 27 26 25 24 25 26 28 27 25 23 16 13 14 11 7 6 7 9 7 14 15 18 22 21 22 26 28
37 35 33 33 31 29 30 31 31 30 28 29 27 26 24 24 25 25 26 25 26 26 25 27 29 34 31 29 26 23 18 16 15 12 10 8 10 11 10 13 16 18 17 17 18
37 34 31 31 32 32 34 34 32 29 29 26 22 20 20 21 22 23 25 26 28 28 27 27 29 33 37 34 31 27 27 17 11 16 15 10 9 15 14 13 12 16 17 15 15
36 36 35 33 34 34 33 30 27 24 22 19 17 15 14 13 14 15 19 22 24 26 27 30 32 33 35 39 32 29 34 26 9 18 21 22 14 18 19 18 16 14 16 16 14
28 30 31 30 29 28 26 23 21 20 19 18 16 15 14 13 12 11 11 14 16 19 23 26 30 33 34 37 44 41 33 33 28 16 18 26 26 24 22 21 21 18 16 15 17
23 23 23 23 23 23 23 22 21 20 20 20 18 16 15 15 14 14 12 11 11 10 10 16 25 30 32 37 39 44 36 40 38 28 25 16 16 32 29 25 24 24 21 19 16
24 24 24 25 24 25 25 25 24 24 23 22 22 20 18 18 17 17 15 13 11 12 9 10 12 18 26 33 38 41 45 45 39 48 32 35 21 31 35 30 29 27 27 24 23
24 24 25 27 27 27 28 29 30 29 27 25 24 23 22 21 21 19 17 14 14 13 13 11 11 13 15 20 31 39 44 47 48 48 49 48 47 35 29 23 34 31 30 30 28
25 25 25 25 25 26 28 29 30 31 31 30 28 27 26 25 24 23 21 19 16 16 14 14 13 11 14 15 17 23 34 43 46 49 49 51 51 45 41 41 37 38 35 34 32
26 27 26 26 27 25 27 29 31 31 32 33 34 33 31 29 29 28 27 25 24 22 20 18 17 16 16 15 16 18 21 27 38 46 47 51 53 53 47 49 44 45 44 40 38
28 28 28 27 26 27 28 29 29 28 28 28 32 34 34 33 33 32 31 30 29 29 28 26 22 22 20 19 17 18 19 20 23 27 38 49 52 56 46 48 34 26 43 47 44
30 30 30 31 30 31 31 33 35 34 32 30 30 29 28 28 29 30 30 31 31 32 32 31 29 27 27 25 23 21 20 21 21 25 27 30 40 49 50 51 57 58 50 50 49
36 36 36 36 36 36 36 38 39 38 39 39 40 38 38 35 34 32 32 32 30 29 29 31 32 31 32 31 29 27 25 23 23 25 27 28 32 31 36 43 53 57 57 57 54
42 43 42 45 44 44 43 46 47 45 45 45 46 46 45 44 42 41 40 38 34 32 32 33 31 31 32 33 33 33 31 28 28 28 28 29 30 33 25 34 38 48 56 58 58
49 50 46 52 51 50 50 52 52 52 49 52 52 52 52 52 49 49 48 45 43 40 37 37 35 36 31 35 37 36 35 36 33 32 32 32 34 29 29 32 33 37 41 50 59
56 57 53 57 57 57 57 58 57 56 54 55 57 55 57 58 57 54 53 52 50 47 46 45 44 40 37 38 40 37 38 39 39 38 37 35 38 32 30 30 30 33 37 39 42
60 63 60 59 61 63 64 64 64 64 63 63 62 61 61 60 57 56 57 55 57 53 53 54 49 49 46 43 41 44 46 43 42 43 41 42 45 33 38 34 29 30 34 36 38
65 67 66 65 69 70 69 70 72 73 72 71 71 69 69 67 68 65 64 66 64 63 57 60 58 56 55 55 54 47 47 48 48 46 47 47 51 43 42 42 34 34 32 32 34
71 73 75 77 76 76 78 79 80 80 80 78 80 79 77 77 76 74 73 74 72 72 64 66 63 63 62 62 62 59 55 52 51 53 51 53 54 52 47 46 43 42 37 34 33
73 76 78 81 84 83 83 84 86 86 85 84 85 86 87 86 84 82 82 80 78 80 76 72 70 70 67 68 70 66 62 61 56 58 59 56 57 63 54 49 45 50 48 42 38
82 85 86 89 92 93 95 94 95 96 95 94 94 92 92 89 87 84 84 85 84 83 84 82 75 77 69 70 69 68 62 61 61 60 64 63 61 63 63 51 46 49 58 49 46
Wind_Direction
211 216 218 218 222 226 227 234 236 243 244 246 252 262 256 252 247 239 199 189 217 243 21 40 45 38 48 78 83 79 56 54 51 48 58 64 66 68 70 71 74 77 77 76 76
217 218 224 226 229 232 238 244 248 246 246 244 252 256 250 243 249 244 239 199 212 222 260 280 340 34 34 30 47 56 45 50 66 60 62 65 70 72 71 71 75 75 71 74 76
220 220 224 229 231 235 239 245 248 247 248 248 247 254 249 248 241 245 241 232 204 221 234 252 276 344 338 33 38 61 63 55 65 72 72 70 73 76 76 72 74 76 73 74 74
217 222 227 228 231 235 239 241 247 240 240 246 248 249 253 256 252 247 246 245 231 214 227 231 227 235 282 296 334 57 67 65 89 78 80 83 74 79 81 81 81 84 85 83 80
212 216 222 226 224 226 230 233 237 239 242 247 249 252 252 255 255 255 250 245 243 235 226 226 223 235 232 247 238 236 168 111 97 110 87 102 93 86 89 92 89 89 89 91 88
203 211 214 217 216 221 230 232 236 241 246 248 252 251 251 252 253 254 257 253 243 238 233 226 226 225 228 289 253 256 218 213 157 163 138 121 109 106 100 101 94 87 88 92 89
204 210 212 216 222 231 236 242 247 252 253 264 260 260 258 257 256 255 255 256 255 245 234 230 222 225 218 208 231 268 231 229 218 224 183 176 146 125 119 117 108 97 89 92 90
206 210 218 223 231 236 243 250 259 263 265 266 267 265 263 260 259 257 255 253 247 242 237 231 225 221 224 223 217 222 257 248 241 217 240 172 210 185 153 144 131 120 111 101 86
209 213 218 226 235 242 250 255 258 262 267 267 263 257 257 256 255 256 255 253 249 243 240 238 231 222 224 225 228 225 226 232 248 235 225 195 181 203 197 183 168 146 136 119 109
215 221 227 232 238 242 246 249 252 254 252 250 245 240 238 241 246 250 254 253 249 244 242 238 233 229 224 222 217 233 224 220 196 241 238 224 219 214 209 206 202 186 164 150 135
209 217 224 230 234 236 236 236 235 231 232 235 234 234 231 227 225 227 241 253 254 250 245 237 237 234 229 227 227 232 221 222 219 256 246 234 234 231 221 214 213 207 196 183 163
193 198 202 203 208 214 217 221 224 228 228 229 225 222 225 224 226 225 228 233 240 241 239 237 239 236 232 229 231 231 223 226 220 215 213 217 228 233 225 221 219 219 212 200 189
191 197 202 208 211 215 218 223 224 226 228 224 225 224 224 231 229 230 228 225 232 231 221 220 223 232 235 230 229 232 230 227 227 224 219 205 223 223 231 230 226 222 225 219 205
203 207 210 214 216 220 223 224 226 227 226 228 228 227 228 229 230 229 221 217 227 235 230 217 217 223 226 233 234 232 233 235 234 232 229 229 230 240 225 230 232 232 229 227 227
210 213 217 221 222 226 227 229 232 231 231 232 233 233 233 234 236 238 232 227 230 234 240 237 235 231 223 224 229 234 239 238 236 240 237 236 235 224 232 238 242 240 238 237 229
224 227 228 232 234 234 233 232 234 234 235 235 235 238 240 242 242 240 241 239 237 241 244 245 245 244 245 239 233 235 233 238 241 242 241 243 243 242 237 241 244 247 246 241 238
228 229 232 235 235 236 236 233 235 237 238 238 237 236 240 242 244 245 246 248 247 245 246 251 249 249 247 246 250 253 247 244 240 242 243 243 243 243 237 242 233 239 235 241 242
237 241 241 244 242 239 239 239 239 237 232 235 239 239 238 240 243 247 250 252 250 248 245 246 248 248 247 247 251 254 256 252 250 249 252 247 247 242 243 239 243 248 251 245 244
243 242 245 247 248 246 245 241 240 241 240 237 239 237 237 238 240 243 247 251 252 252 248 246 248 246 248 249 253 254 252 251 256 255 258 251 254 248 242 240 242 244 246 245 243
251 253 252 252 251 251 251 250 249 248 245 245 241 243 242 243 240 242 246 247 247 250 252 252 251 249 250 248 252 254 253 251 255 257 260 258 254 254 240 246 248 243 245 246 245
258 259 259 262 261 261 260 259 257 255 254 256 252 248 246 248 246 247 247 248 247 246 249 252 252 251 252 257 253 252 253 252 253 254 258 260 259 247 254 253 251 251 247 247 246
258 260 259 262 264 263 262 261 262 261 257 257 258 255 255 252 250 248 247 249 246 250 249 254 250 253 248 256 256 256 257 255 253 250 251 255 260 258 248 252 253 252 254 247 248
259 260 259 262 263 263 262 262 263 263 261 259 259 258 257 255 253 251 250 247 254 247 253 253 254 253 252 254 257 255 253 255 257 253 250 253 256 248 257 252 251 256 257 255 247
261 262 261 261 263 261 261 261 262 262 261 259 259 257 258 256 255 253 252 253 250 252 249 253 252 254 255 256 258 255 259 255 252 254 250 251 254 249 253 254 248 256 255 257 255
263 264 264 265 261 262 264 263 263 262 261 259 260 258 258 257 257 256 256 255 254 252 248 256 254 254 255 257 256 257 258 258 256 251 251 250 254 252 248 251 257 254 251 254 254
268 267 267 267 267 266 264 264 264 263 261 260 258 258 260 258 258 258 259 258 256 255 255 255 258 258 256 257 257 256 255 257 255 255 250 251 252 257 250 246 251 258 254 251 250
271 269 268 269 268 267 267 264 264 263 262 261 260 259 258 259 259 259 258 258 258 257 258 256 255 256 254 253 253 255 257 254 253 250 251 249 251 254 258 251 246 251 257 254 253
Height
10972 10977 10981 10985 10989 10992 10995 10998 11000 11001 11003 11005 11006 11007 11008 11009 11011 11014 11016 11019 11021 11020 11019 11017 11016 11016 11020 11022 11023 11024 11027 11020 11012 11010 11007 11001 10997 10993 10991 10989 10987 10987 10986 10986 10985
10969 10975 10979 10984 10987 10990 10993 10996 10999 11000 11001 11003 11004 11006 11007 11009 11010 11012 11015 11018 11021 11022 11021 11020 11018 11017 11018 11017 11019 11020 11020 11017 11017 11016 11013 11008 11005 11001 10997 10995 10993 10993 10992 10990 10989
10967 10973 10977 10981 10984 10988 10991 10993 10996 10997 10998 11000 11002 11003 11005 11007 11009 11010 11013 11016 11020 11023 11023 11023 11020 11019 11021 11021 11020 11020 11022 11020 11021 11019 11017 11014 11012 11008 11004 11002 11001 10998 10998 10996 10994
10965 10970 10975 10979 10982 10985 10988 10990 10992 10994 10996 10998 10999 11001 11002 11004 11006 11008 11010 11013 11017 11020 11023 11024 11023 11017 11023 11025 11024 11023 11024 11024 11025 11023 11021 11019 11018 11015 11012 11010 11008 11005 11004 11002 11000
10962 10967 10971 10976 10980 10982 10985 10987 10989 10991 10993 10994 10995 10997 10999 11001 11003 11004 11007 11010 11013 11016 11019 11022 11024 11024 11026 11027 11026 11027 11028 11027 11027 11025 11024 11023 11021 11021 11018 11016 11015 11013 11010 11008 11006
10960 10965 10969 10973 10976 10979 10981 10983 10986 10987 10989 10991 10991 10993 10995 10997 10998 10999 11000 11004 11008 11010 11014 11017 11020 11024 11026 11031 11028 11026 11027 11028 11027 11027 11026 11026 11025 11024 11024 11021 11020 11019 11017 11015 11014
10958 10963 10967 10970 10973 10975 10978 10980 10982 10983 10985 10986 10987 10988 10989 10991 10992 10994 10995 10998 11002 11005 11008 11012 11014 11018 11024 11023 11029 11026 11027 11028 11029 11027 11027 11027 11028 11027 11027 11026 11024 11024 11023 11021 11020
10956 10960 10964 10968 10970 10973 10974 10976 10977 10979 10980 10981 10982 10983 10984 10985 10986 10988 10990 10992 10995 10999 11002 11005 11009 11012 11015 11019 11021 11027 11025 11027 11026 11027 11028 11028 11028 11029 11029 11030 11029 11027 11027 11026 11025
10954 10958 10962 10965 10966 10968 10970 10971 10973 10974 10975 10976 10977 10979 10980 10980 10981 10982 10984 10986 10989 10992 10995 10998 11001 11005 11009 11012 11017 11021 11022 11024 11023 11025 11027 11028 11026 11028 11030 11031 11032 11031 11030 11030 11029
10951 10955 10958 10960 10962 10964 10965 10966 10968 10969 10970 10972 10973 10975 10976 10977 10978 10978 10979 10980 10982 10984 10988 10990 10993 10997 11001 11007 11012 11011 11016 11020 11018 11023 11025 11026 11025 11027 11029 11031 11033 11033 11033 11032 11031
10948 10951 10954 10956 10958 10959 10961 10962 10965 10966 10968 10970 10971 10972 10973 10974 10976 10976 10977 10977 10978 10979 10981 10984 10986 10990 10995 10998 11001 11005 11010 11015 11016 11020 11020 11024 11023 11026 11027 11029 11032 11033 11034 11034 11033
10946 10948 10951 10953 10955 10957 10958 10960 10962 10964 10965 10967 10968 10970 10971 10972 10974 10975 10976 10976 10976 10977 10978 10979 10979 10982 10987 10991 10993 10997 11003 11004 11010 11012 11016 11021 11013 11020 11023 11026 11029 11032 11033 11033 11035
10944 10946 10948 10951 10952 10954 10956 10958 10959 10961 10963 10964 10965 10966 10968 10969 10971 10972 10973 10974 10974 10975 10975 10976 10976 10977 10980 10984 10986 10988 10992 10999 11002 11004 11010 11012 11010 11014 11020 11021 11024 11028 11031 11032 11033
10943 10944 10946 10948 10950 10952 10953 10954 10956 10957 10959 10960 10962 10963 10964 10965 10967 10968 10970 10971 10972 10972 10973 10973 10974 10974 10975 10977 10980 10983 10985 10989 10993 10996 11002 11004 11008 11012 11018 11013 11020 11025 11027 11029 11030
10940 10942 10943 10945 10947 10948 10950 10951 10952 10953 10956 10957 10958 10959 10960 10962 10963 10964 10965 10967 10968 10969 10969 10970 10970 10971 10971 10973 10974 10976 10977 10980 10984 10988 10993 10995 10998 11008 11009 11015 11015 11020 11023 11025 11027
10936 10938 10940 10941 10942 10943 10945 10946 10946 10948 10949 10950 10952 10953 10954 10956 10957 10959 10960 10962 10963 10964 10965 10966 10966 10967 10967 10968 10969 10970 10972 10973 10976 10980 10984 10985 10989 10999 11007 11007 11011 11012 11015 11018 11021
10931 10933 10934 10935 10937 10938 10940 10941 10942 10943 10943 10945 10946 10947 10948 10949 10950 10952 10953 10955 10957 10958 10959 10960 10961 10962 10963 10963 10964 10964 10966 10968 10970 10972 10973 10975 10978 10985 10997 10996 11003 10988 10999 11008 11014
10925 10926 10928 10929 10930 10932 10933 10935 10935 10937 10938 10940 10940 10941 10942 10944 10945 10946 10947 10947 10949 10950 10952 10953 10955 10956 10957 10958 10958 10959 10960 10961 10963 10964 10964 10967 10967 10978 10983 10985 10987 10987 10990 10997 11004
10916 10917 10919 10920 10922 10923 10925 10925 10925 10928 10930 10931 10931 10933 10933 10935 10937 10939 10940 10941 10941 10942 10944 10946 10947 10949 10949 10952 10952 10953 10954 10956 10957 10957 10958 10960 10959 10966 10973 10978 10979 10980 10983 10989 10996
10907 10907 10910 10908 10911 10913 10915 10913 10915 10917 10918 10920 10921 10922 10924 10925 10928 10928 10931 10931 10933 10934 10935 10937 10940 10941 10942 10943 10944 10945 10947 10949 10950 10951 10952 10952 10954 10955 10963 10966 10966 10969 10972 10976 10982
10895 10896 10901 10896 10898 10900 10901 10900 10902 10904 10908 10906 10908 10910 10912 10912 10916 10918 10920 10921 10923 10924 10926 10927 10930 10931 10936 10935 10936 10937 10938 10939 10942 10943 10943 10944 10944 10951 10953 10955 10957 10960 10961 10963 10968
10883 10881 10888 10884 10885 10885 10886 10885 10886 10889 10892 10893 10891 10895 10897 10898 10902 10905 10907 10908 10910 10913 10915 10915 10918 10922 10925 10925 10927 10930 10929 10930 10932 10932 10935 10936 10934 10941 10945 10948 10950 10951 10951 10955 10957
10869 10866 10870 10872 10870 10869 10870 10871 10871 10871 10875 10875 10876 10877 10878 10882 10886 10889 10891 10893 10893 10901 10901 10902 10909 10909 10912 10915 10917 10917 10917 10921 10923 10923 10926 10925 10922 10935 10933 10938 10943 10943 10943 10946 10949
10852 10850 10853 10856 10851 10851 10852 10854 10853 10852 10855 10856 10857 10860 10861 10864 10866 10872 10875 10875 10879 10881 10890 10887 10893 10896 10899 10900 10900 10908 10907 10910 10912 10914 10914 10915 10910 10921 10923 10924 10932 10934 10936 10938 10939
10835 10833 10834 10832 10833 10833 10832 10832 10831 10832 10833 10837 10836 10839 10840 10843 10846 10852 10855 10856 10860 10861 10873 10870 10877 10879 10883 10884 10886 10891 10896 10897 10900 10901 10903 10902 10902 10904 10911 10915 10919 10922 10926 10929 10931
10815 10813 10811 10810 10805 10807 10810 10809 10806 10806 10808 10812 10813 10815 10814 10820 10825 10831 10833 10837 10841 10840 10851 10855 10860 10859 10867 10868 10868 10875 10881 10883 10886 10886 10890 10891 10892 10884 10897 10904 10910 10908 10911 10918 10923
10792 10788 10788 10784 10780 10778 10775 10780 10781 10779 10782 10783 10783 10786 10787 10795 10803 10810 10811 10814 10819 10822 10823 10832 10836 10837 10849 10846 10846 10861 10866 10865 10866 10870 10872 10877 10878 10875 10875 10891 10901 10900 10894 10905 10910